This is the latest recevied weather packets stored in our database for station/object DL9SEC-13. If no packets are shown the sender has not sent any weather packets the latest 10 day(s).
| Time | Temp. | Humidity | Pressure | Rain* | Wind** | Luminosity | Snow |
|---|---|---|---|---|---|---|---|
| 1777535703 | 10° C | 34% | 1029.4 hPa | 0 mm | - | - | - |
| 1777534803 | 10° C | 33% | 1029.3 hPa | 0 mm | - | - | - |
| 1777533903 | 9.44° C | 34% | 1029.2 hPa | 0 mm | - | - | - |
| 1777533003 | 8.89° C | 34% | 1029.3 hPa | 0 mm | - | - | - |
| 1777532103 | 8.89° C | 35% | 1029.2 hPa | 0 mm | - | - | - |
| 1777531203 | 8.33° C | 35% | 1029.1 hPa | 0 mm | - | - | - |
| 1777530303 | 7.78° C | 36% | 1028.8 hPa | 0 mm | - | - | - |
| 1777529403 | 7.78° C | 38% | 1028.8 hPa | 0 mm | - | - | - |
| 1777528503 | 7.22° C | 38% | 1028.8 hPa | 0 mm | - | - | - |
| 1777527604 | 6.67° C | 39% | 1028.7 hPa | 0 mm | - | - | - |
| 1777526704 | 6.67° C | 39% | 1028.5 hPa | 0 mm | - | - | - |
| 1777525803 | 6.11° C | 40% | 1028.4 hPa | 0 mm | - | - | - |
| 1777524904 | 6.11° C | 41% | 1028.5 hPa | 0 mm | - | - | - |
| 1777524004 | 5.56° C | 42% | 1028.3 hPa | 0 mm | - | - | - |
| 1777523104 | 6.11° C | 42% | 1028.3 hPa | 0 mm | - | - | - |
| 1777522203 | 6.11° C | 42% | 1028.2 hPa | 0 mm | - | - | - |
| 1777521303 | 6.67° C | 41% | 1027.9 hPa | 0 mm | - | - | - |
| 1777520403 | 6.67° C | 41% | 1028 hPa | 0 mm | - | - | - |
| 1777519503 | 6.67° C | 41% | 1028 hPa | 0 mm | - | - | - |
| 1777518603 | 7.22° C | 40% | 1028 hPa | 0 mm | - | - | - |
| 1777517703 | 7.22° C | 40% | 1027.9 hPa | 0 mm | - | - | - |
| 1777516803 | 7.22° C | 40% | 1027.7 hPa | 0 mm | - | - | - |
| 1777515903 | 7.78° C | 40% | 1027.8 hPa | 0 mm | - | - | - |
| 1777515003 | 7.78° C | 41% | 1027.8 hPa | 0 mm | - | - | - |
| 1777514103 | 7.78° C | 40% | 1027.9 hPa | 0 mm | - | - | - |
* Rain latest hour (hover to see other rain measurements)
** Current wind speed in m/s (hover to see current wind gust speed)